CAPE
1003 1106 1052 1013 1082 1048 815 796 745 665 646 636 839 952 934 990 1147 1161 1056 1086 1166 1096 1015 923 984 1045 1008 888 780 956 758 774 637 772 790 939 937 1110 1059 1041 911 998 1125 1174 1284 1315 1068 983 885 798 750 738 738 653 680 745 462 776 962 891 934 866 721 925 1027 750 669 632 516 532 551 602 318 488 891 1212 1394 1432 1477 1561 1533 1342 1276 1270 1242
1102 1128 1106 1067 1069 1029 994 867 749 663 640 715 850 1018 1000 975 1036 1120 1140 1094 1055 1002 988 945 960 928 953 885 715 848 934 725 715 687 688 710 675 704 890 958 892 823 872 1057 1013 1065 952 871 743 709 639 526 478 557 536 462 457 476 466 487 542 614 566 685 646 804 672 614 508 489 527 98 498 1591 1359 1418 1388 1345 1351 1317 1274 1249 1213 1184 1119
1153 1178 1075 954 1035 1126 1058 942 715 576 731 859 955 1016 1008 985 955 1090 1099 993 937 903 863 850 840 831 840 696 655 792 788 724 772 782 670 526 380 238 590 741 825 798 708 692 904 922 906 784 678 562 480 345 154 373 396 398 410 411 405 409 458 423 384 432 571 581 638 660 543 504 451 429 422 1077 503 247 359 736 994 1294 1184 1070 1018 1106 1290
1180 1232 1166 1182 1130 1189 1098 963 727 692 800 939 925 917 892 926 898 1025 974 792 723 700 669 726 774 744 659 633 640 764 766 792 690 600 600 520 505 517 695 802 839 728 611 541 576 688 734 658 619 425 0 1 9 17 0 21 21 276 277 330 323 98 121 205 386 485 537 616 400 468 529 469 394 360 380 236 718 829 1164 1204 1131 1206 1310 1427 1396
1178 1098 1209 1366 1370 1279 1110 904 664 812 865 839 781 776 877 895 907 889 758 740 747 665 686 707 705 646 600 598 674 677 797 746 639 691 680 643 620 695 762 724 654 606 550 510 430 386 481 590 576 353 138 0 0 0 0 0 0 0 0 0 0 2 6 38 16 137 336 442 305 337 345 452 420 506 455 399 887 278 472 560 702 1044 1434 1432 1364
1259 1310 1350 1411 1353 1179 1017 818 770 910 921 806 810 854 948 927 899 768 690 690 732 680 652 681 598 603 566 665 690 731 629 462 588 659 618 611 686 599 558 436 344 0 0 0 0 0 0 0 0 0 0 0 0 0 0 0 0 0 0 0 0 0 0 0 0 0 0 113 199 158 270 260 235 376 495 450 324 284 290 283 345 399 843 1262 1338
1384 1383 1422 1434 1298 1082 951 907 866 975 1028 953 921 887 852 760 763 827 800 737 661 659 667 675 578 559 567 625 580 594 445 526 627 669 688 587 447 369 320 0 0 0 0 0 0 0 0 0 0 0 0 0 0 0 0 0 0 0 0 0 0 0 0 0 0 0 0 0 0 96 56 32 66 106 127 101 33 77 42 111 122 32 31 296 868
1409 1259 1307 1293 1257 1079 1020 1029 896 863 953 912 857 805 719 670 745 781 797 767 715 679 730 621 529 645 640 571 474 379 481 564 585 521 484 424 362 296 0 0 0 0 0 0 0 0 0 0 0 0 0 0 0 0 0 0 0 0 0 0 0 0 0 0 0 0 0 0 0 0 0 0 0 59 70 8 19 5 0 0 0 0 0 39 263
1214 1146 1165 1323 1044 998 934 1129 986 832 826 863 758 772 794 760 756 766 799 757 780 803 709 639 622 640 622 575 480 459 502 534 510 520 481 369 74 0 0 0 0 0 0 0 0 0 0 0 0 0 0 0 0 0 0 0 0 0 0 0 0 0 0 0 0 0 0 0 0 0 0 0 0 0 0 0 3 3 0 0 0 0 0 2 0
1135 1168 1012 1083 896 963 1006 1066 1040 824 822 899 800 794 895 836 834 834 771 793 756 644 527 526 541 482 538 567 542 520 497 469 404 405 376 316 0 0 0 0 0 0 0 0 0 0 0 0 0 0 0 0 0 0 0 0 0 0 0 0 0 0 0 0 0 0 0 0 0 0 0 0 0 0 4 6 4 14 16 8 5 1 0 0 0
1150 1096 1072 1024 879 865 902 1038 1034 738 861 966 853 873 895 848 808 789 783 722 663 623 552 492 434 420 485 526 480 488 439 374 312 279 48 0 0 2 0 1 0 0 0 0 0 0 0 0 0 0 0 0 0 0 0 0 0 0 0 0 0 0 0 0 0 0 0 0 0 0 0 0 6 17 17 16 16 14 7 4 2 2 0 0 0
1216 1090 1121 1080 975 913 973 940 812 763 798 962 888 780 764 841 799 737 635 591 556 541 548 469 425 421 505 534 518 451 386 345 296 241 0 0 4 0 0 0 0 0 0 0 0 0 0 0 0 0 0 0 0 0 0 0 0 0 0 0 0 0 0 0 0 0 0 1 0 0 0 2 11 26 22 16 14 14 19 17 9 4 0 0 0
1163 1146 1145 1100 1013 992 1032 965 828 835 910 992 878 718 780 780 691 592 503 447 452 444 484 435 488 546 540 518 449 412 341 332 264 229 0 0 15 0 0 0 0 0 0 0 0 0 0 0 0 0 0 0 0 0 0 0 0 0 0 0 0 0 0 0 0 0 0 0 0 0 1 7 15 26 16 4 2 9 13 18 11 12 14 2 0
1279 1228 1171 1064 1013 1030 1059 932 837 866 921 872 794 765 706 608 545 483 370 406 415 510 488 461 488 513 504 456 462 384 334 242 0 28 0 0 8 0 0 0 0 0 0 0 0 0 0 0 0 0 0 0 0 0 0 0 0 0 0 0 0 0 0 0 0 2 0 3 1 2 0 0 0 1 1 0 0 1 5 7 4 0 0 0 0
1333 1232 1144 1045 1052 1061 1011 906 841 797 805 683 695 610 538 495 422 380 312 328 345 428 433 453 476 476 462 462 393 350 275 240 180 103 55 0 0 0 0 0 0 0 0 0 0 0 0 0 0 0 0 0 0 0 0 0 0 0 0 0 0 0 0 0 0 0 0 0 0 0 0 0 0 0 0 0 1 0 0 0 1 2 0 0 1
1323 1200 1118 1089 1058 1022 954 854 821 759 721 680 596 556 489 386 325 287 288 300 312 346 450 456 381 407 392 397 368 240 251 230 191 71 0 0 0 0 0 0 0 0 0 0 0 0 0 0 0 0 0 0 0 0 0 0 0 0 0 0 0 0 0 0 0 0 0 0 0 0 0 0 0 0 0 0 2 0 0 0 0 2 8 2 0
1246 1135 1110 1102 1003 942 874 804 788 733 701 647 576 489 405 354 390 353 311 316 216 371 370 389 366 384 376 313 189 0 0 0 0 0 0 0 0 0 0 0 0 0 0 0 0 0 0 0 0 0 0 0 0 0 0 0 0 0 0 0 0 0 0 0 0 0 0 0 0 0 0 0 0 3 2 4 4 0 0 0 2 5 7 10 6
1188 1106 1130 1123 988 901 816 728 718 664 614 581 505 455 438 408 390 325 303 0 0 45 314 334 326 170 0 0 0 0 0 0 0 0 0 0 0 0 0 0 0 0 0 0 0 0 0 0 0 0 0 0 0 0 0 0 0 0 0 0 0 0 0 0 0 0 0 0 0 0 0 0 0 2 2 4 4 4 4 5 5 6 12 10 8
1161 1130 1066 1002 952 890 764 672 582 576 538 472 424 465 484 498 465 445 409 315 0 19 174 182 107 0 0 0 0 67 0 0 0 0 0 0 0 0 0 0 0 0 0 0 0 0 0 0 0 0 0 0 0 0 0 0 0 0 0 0 0 0 0 0 0 0 0 0 0 0 0 0 1 2 3 4 4 4 4 4 6 8 10 13 8
1178 1116 978 947 933 856 756 680 624 583 490 407 389 452 444 420 391 352 288 207 0 0 0 0 0 0 0 0 87 24 0 0 0 0 0 0 0 0 0 0 0 0 0 0 0 0 0 0 0 0 0 0 0 0 0 0 0 0 0 0 0 0 0 0 0 0 0 0 0 0 0 0 1 2 1 2 4 4 4 2 3 4 6 8 9
1222 1127 932 940 928 864 822 711 627 560 479 396 420 438 448 440 461 389 322 51 0 49 76 11 0 0 0 0 0 0 0 0 0 0 0 0 0 0 0 0 0 0 0 0 0 0 0 0 0 0 0 0 0 0 0 0 0 0 0 0 0 0 0 0 0 0 0 0 0 0 0 0 0 0 0 0 1 3 3 3 3 2 5 6 5
1227 1100 968 999 936 920 842 701 566 478 410 386 444 533 538 481 432 402 301 230 179 157 0 0 0 0 0 0 0 0 0 0 0 0 0 0 0 0 0 0 0 0 0 0 0 0 0 0 0 0 0 0 0 0 0 0 0 0 0 0 0 0 0 0 0 0 0 0 0 0 0 0 0 0 0 0 2 3 2 2 3 1 5 3 9
1215 1079 1027 984 880 873 747 604 493 449 360 370 416 524 514 484 429 367 271 130 0 0 0 0 0 0 0 0 0 0 0 0 0 0 0 0 0 0 0 0 0 0 0 0 0 0 0 0 0 0 0 0 0 0 0 0 0 0 0 0 0 0 0 0 0 0 0 0 0 0 0 0 0 0 0 0 1 1 0 1 1 2 6 1 7
1209 1090 997 933 882 822 644 569 503 484 340 306 437 564 524 459 350 256 0 0 0 0 0 0 0 0 0 0 0 0 0 0 0 0 0 0 0 0 0 0 0 0 0 0 0 0 0 0 0 0 0 0 0 0 0 0 0 0 0 0 0 0 0 0 0 0 0 0 0 0 0 0 0 0 0 0 0 0 0 0 2 3 4 1 5
1201 1109 1082 955 872 743 665 555 560 501 325 321 507 502 466 386 268 0 0 0 0 0 0 0 0 0 0 0 0 0 0 0 62 0 0 0 0 0 0 0 0 0 0 0 0 0 0 0 0 0 0 0 0 0 0 0 0 0 0 0 0 0 0 0 0 0 0 0 0 0 0 0 0 0 0 0 0 0 0 2 3 2 2 7 1
1253 1161 1129 997 822 711 695 616 560 498 390 322 433 469 378 338 258 0 0 0 0 0 0 0 0 0 0 0 0 0 0 30 100 130 127 0 0 0 0 0 0 0 0 0 0 0 0 0 0 0 0 0 0 0 0 0 0 0 0 0 0 0 0 0 0 0 0 0 0 0 0 0 0 0 0 0 0 0 0 1 2 2 1 1 1
1287 1194 1106 999 778 754 726 636 602 520 446 144 394 402 357 317 302 0 0 0 0 0 0 0 0 0 0 0 0 0 0 0 0 0 0 0 0 0 0 0 0 0 0 0 0 0 0 0 0 0 0 0 0 0 0 0 0 0 0 0 0 0 0 0 0 0 0 0 0 0 0 0 0 0 0 0 0 0 0 0 0 0 0 0 0
1192 1110 1016 930 789 735 724 672 607 516 476 98 304 387 356 341 80 0 0 0 0 0 0 0 0 0 0 0 0 0 0 0 0 0 0 0 0 0 0 0 0 0 0 0 0 0 0 0 0 0 0 0 0 0 0 0 0 0 0 0 0 0 0 0 0 0 0 0 0 0 0 0 0 0 0 0 0 0 0 0 0 0 0 0 0
1172 1062 940 863 767 664 732 728 687 566 530 173 87 55 336 305 0 0 0 0 0 0 0 0 0 0 0 0 0 0 0 0 0 0 0 0 0 0 0 0 0 0 0 0 0 0 0 0 0 0 0 0 0 0 0 0 0 0 0 0 0 0 0 0 0 0 0 0 0 0 0 0 0 0 0 0 0 0 0 0 0 0 0 1 1
1292 1209 1076 864 803 713 721 675 616 594 470 115 77 100 118 345 189 0 3 0 0 0 0 0 67 65 0 0 0 0 0 0 0 0 0 0 0 0 0 0 0 0 0 0 0 0 0 0 0 0 0 0 0 0 0 0 0 0 0 0 0 0 0 0 0 0 0 0 0 0 0 0 0 0 0 0 0 0 0 0 0 0 0 1 1
1366 1242 848 698 747 675 644 503 632 667 470 350 266 279 135 318 266 153 33 0 0 0 0 0 180 182 190 69 0 0 0 0 0 0 0 0 0 0 0 0 0 0 0 0 0 0 0 0 0 0 0 0 0 0 0 0 0 0 0 0 0 0 0 0 0 0 0 0 0 0 0 0 0 0 0 0 0 0 0 0 0 0 0 0 0
1087 1024 847 608 542 581 595 500 410 548 640 513 256 205 121 267 281 255 120 0 0 0 0 0 6 209 238 207 0 0 0 0 0 0 0 0 0 0 0 0 0 0 0 0 0 0 0 0 0 0 0 0 0 0 0 0 0 0 0 0 0 0 0 0 0 0 0 0 0 0 0 0 0 0 0 0 0 0 0 0 0 0 0 0 0
918 856 734 648 557 482 510 539 527 512 539 567 268 148 168 241 282 224 0 0 0 0 0 0 51 240 246 193 180 0 0 0 0 0 0 0 0 0 0 0 0 0 0 0 0 0 0 0 0 0 0 0 0 0 0 0 0 0 0 0 0 0 0 0 0 0 0 0 0 0 0 0 0 0 0 0 0 0 0 0 0 0 0 0 0
828 857 833 628 442 355 394 493 566 575 505 423 219 165 324 374 343 260 193 102 108 21 120 217 254 267 261 226 56 0 0 0 0 0 0 0 0 0 0 0 0 0 0 0 0 0 0 0 0 0 0 0 0 0 0 0 0 0 0 0 0 0 0 0 0 0 0 0 0 0 0 0 0 0 0 0 0 0 0 0 0 0 0 0 0
783 759 760 565 399 304 397 457 475 462 438 441 55 116 112 350 383 260 230 92 91 211 280 265 272 251 232 138 0 0 0 0 0 5 19 0 0 0 0 0 0 0 0 0 0 0 0 0 0 0 0 0 0 0 0 0 0 0 0 0 0 0 0 0 0 0 0 0 0 0 0 0 0 0 0 0 0 0 0 0 0 0 0 0 0
836 803 738 693 576 381 271 427 658 461 318 314 126 341 299 164 218 141 221 181 249 267 277 276 232 233 148 0 0 0 0 0 17 9 0 0 0 0 0 0 0 0 0 0 0 0 0 0 0 0 0 0 0 0 0 0 0 0 0 0 0 0 0 0 0 0 0 0 0 0 0 0 0 0 0 0 0 0 0 0 0 0 0 0 0
816 735 751 792 729 487 243 228 393 471 323 259 294 337 306 110 80 110 224 232 248 269 282 241 43 106 0 0 0 0 0 0 0 0 0 0 0 0 0 0 0 0 0 0 0 0 0 0 0 0 0 0 0 0 0 0 0 0 0 0 0 0 0 0 0 0 0 0 0 0 0 0 0 0 0 0 0 0 0 0 0 0 0 0 0
815 710 681 696 623 530 544 503 429 468 497 434 348 314 145 70 110 137 109 143 100 234 220 186 23 0 0 0 0 0 0 0 0 0 0 0 0 0 0 0 0 0 0 0 0 0 0 0 0 0 0 0 0 0 0 0 0 0 0 0 0 0 0 0 0 0 0 0 0 0 0 0 0 0 0 0 0 0 0 0 0 0 0 0 0
717 638 597 620 561 508 449 360 418 471 449 468 394 265 106 54 54 89 139 41 30 66 6 0 0 0 0 0 0 0 0 0 0 0 0 0 0 0 0 0 0 0 0 0 0 0 0 0 0 0 0 0 0 0 0 0 0 0 0 0 0 0 0 0 0 0 0 0 0 0 0 0 0 0 0 0 0 0 0 0 0 0 0 0 0
565 544 534 554 637 494 355 377 461 496 435 360 317 297 238 56 56 16 28 9 0 0 0 0 0 0 0 0 0 0 0 0 0 0 0 0 0 0 0 0 0 0 0 0 0 0 0 0 0 0 0 0 0 0 0 0 0 0 0 0 0 0 0 0 0 0 0 0 0 0 0 0 0 0 0 0 0 0 0 0 0 0 0 0 0
516 454 378 490 626 457 336 351 398 337 310 268 253 152 96 161 178 0 0 0 0 0 0 0 0 0 0 0 0 0 0 0 0 0 0 0 0 0 0 0 0 0 0 0 0 0 0 0 0 0 0 0 0 0 0 0 0 0 0 0 0 0 0 0 0 0 0 0 0 0 0 0 0 0 0 0 0 0 0 0 0 0 0 0 0
497 396 316 344 441 423 364 402 335 308 289 264 104 141 113 239 137 64 5 0 0 0 0 0 0 0 0 0 0 0 0 0 0 0 0 0 0 0 0 0 0 0 0 0 0 0 0 0 0 0 0 0 0 0 0 0 0 0 0 0 0 0 0 0 0 0 0 0 0 0 0 0 0 0 0 0 0 0 0 0 0 0 0 0 0
357 304 298 289 304 385 405 422 328 326 282 151 176 123 147 81 42 56 40 0 0 0 0 0 0 0 0 0 0 0 0 0 0 0 0 0 0 0 0 0 0 0 0 0 0 0 0 0 0 0 0 0 0 0 0 0 0 0 0 0 0 0 0 0 0 0 0 0 0 0 0 0 0 0 0 0 0 0 0 0 0 0 0 0 0
275 0 221 236 246 245 288 315 300 328 346 179 238 197 116 58 54 109 66 37 0 0 0 0 0 0 0 0 0 0 0 0 0 0 0 0 0 0 0 0 0 0 0 0 0 0 0 0 0 0 0 0 0 0 0 0 0 0 0 0 0 0 0 0 0 0 0 0 0 0 0 0 0 0 0 0 0 0 0 0 0 0 0 0 0
48 34 150 204 290 315 302 300 320 396 192 231 218 165 126 79 111 108 50 35 0 0 0 0 0 0 0 0 0 0 0 0 0 0 0 0 0 0 0 0 0 0 0 0 0 0 0 0 0 0 0 0 0 0 0 0 0 0 0 0 0 0 0 0 0 0 0 0 0 0 0 0 0 0 0 0 0 0 0 0 0 0 0 0 0
0 100 149 223 240 306 352 432 468 411 106 153 133 122 122 134 144 103 42 0 0 0 0 0 0 0 0 0 0 0 0 0 0 0 0 0 0 0 0 0 0 0 0 0 0 0 0 0 0 0 0 0 0 0 0 0 0 0 0 0 0 0 0 0 0 0 0 0 0 0 0 0 0 0 0 0 0 0 0 0 0 0 0 0 0
0 65 94 157 176 243 380 492 186 111 71 87 116 94 124 122 138 107 38 0 0 0 0 0 0 0 0 0 0 0 0 0 0 0 0 0 0 0 0 0 0 0 0 0 0 0 0 0 0 0 0 0 0 0 0 0 0 0 0 0 0 0 0 0 0 0 0 0 0 0 0 0 0 0 0 0 0 0 0 0 0 0 0 0 0
26 65 68 110 176 285 400 393 392 265 137 104 116 126 136 120 122 61 0 0 0 0 0 0 0 0 0 0 0 0 0 0 0 0 0 0 0 0 0 0 0 0 0 0 0 0 0 0 0 0 0 0 0 0 0 0 0 0 0 0 0 0 0 0 0 0 0 0 0 0 0 0 0 0 0 0 0 0 0 0 0 0 0 0 0
13 50 54 98 164 280 376 430 394 205 145 162 124 96 83 129 84 8 0 0 0 0 0 0 0 0 0 0 0 0 0 0 0 0 0 0 0 0 0 0 0 0 0 0 0 0 0 0 0 0 0 0 0 0 0 0 0 0 0 0 0 0 0 0 0 0 0 0 0 0 0 0 0 0 0 0 0 0 0 0 0 0 0 0 0
2 25 54 84 201 322 414 429 457 267 196 144 172 93 122 131 26 3 0 0 1 0 0 0 0 0 0 0 0 0 0 0 0 0 0 0 0 0 0 0 0 0 0 0 0 0 0 0 0 0 0 0 0 0 0 0 0 0 0 0 0 0 0 0 0 0 0 0 0 0 0 0 0 0 0 0 0 0 0 0 0 0 0 0 0
0 5 60 175 343 422 506 290 263 141 133 108 272 124 165 150 100 34 4 4 5 0 0 0 0 0 0 0 0 0 0 0 0 0 0 0 0 0 0 0 0 0 0 0 0 0 0 0 0 0 0 0 0 0 0 0 0 0 0 0 0 0 0 0 0 0 0 0 0 0 0 0 0 0 0 0 0 0 0 0 0 0 0 0 0
Wind_Speed
33 34 35 37 39 36 39 41 40 39 36 32 30 29 29 29 29 27 25 26 28 28 29 30 30 30 31 30 29 26 25 26 28 28 29 27 24 21 18 20 17 8 5 9 12 11 10 7 8 9 9 9 9 8 7 9 10 10 9 11 11 11 11 12 12 13 14 14 16 16 14 16 17 18 20 20 20 20 21 22 22 21 21 22 21
33 35 35 37 36 36 38 40 40 39 32 29 28 28 28 29 29 26 23 25 27 29 30 29 28 30 31 30 30 29 26 28 29 29 31 29 25 22 18 14 12 12 13 15 14 12 11 10 11 11 11 9 9 9 10 10 11 12 12 12 11 12 12 12 10 13 15 15 13 14 16 nan 16 22 24 22 19 19 20 22 22 22 21 21 21
31 33 34 36 35 35 35 36 37 36 34 30 29 29 29 28 27 23 22 26 28 30 30 29 28 31 30 28 31 31 31 29 28 28 28 26 22 21 17 13 16 15 17 18 16 14 13 12 11 11 11 10 10 11 12 13 13 14 14 14 12 13 13 13 13 15 13 13 15 18 17 17 16 19 20 16 15 17 19 21 21 22 21 23 24
32 33 32 34 33 33 34 35 36 36 34 31 28 29 29 28 26 24 23 26 29 28 29 28 30 31 32 31 31 32 33 31 29 26 23 19 21 22 22 21 19 18 20 20 17 16 14 13 11 11 nan nan nan nan nan nan nan 15 15 15 16 nan 15 14 16 16 16 15 17 18 18 18 17 20 15 15 18 20 20 19 20 19 20 23 24
34 34 31 31 31 32 34 35 34 32 31 29 28 29 28 27 25 25 26 27 27 27 29 30 31 30 31 31 31 32 31 30 27 24 22 24 25 27 26 23 21 21 21 19 17 15 13 12 11 10 11 nan nan nan nan nan nan nan nan nan nan nan nan nan nan 19 18 22 20 19 19 21 22 16 13 20 23 18 17 19 19 19 20 22 23
30 30 28 26 26 29 32 34 32 29 28 27 28 28 28 26 24 23 25 23 21 22 26 27 26 27 27 28 29 27 26 25 25 23 23 23 24 23 24 22 22 nan nan nan nan nan nan nan nan nan nan nan nan nan nan nan nan nan nan nan nan nan nan nan nan nan nan 25 24 25 23 20 17 16 17 16 20 24 22 21 18 20 19 19 21
29 28 25 24 24 26 26 29 32 30 28 27 26 27 27 24 21 20 22 21 18 20 22 24 24 24 26 28 29 28 27 23 21 22 21 22 23 23 20 nan nan nan nan nan nan nan nan nan nan nan nan nan nan nan nan nan nan nan nan nan nan nan nan nan nan nan nan nan nan nan nan nan nan 23 22 17 nan nan nan 22 22 nan nan 18 20
29 28 25 21 21 22 23 25 26 26 27 27 25 25 27 23 19 20 21 21 21 23 22 21 23 23 26 27 27 27 26 24 23 21 21 23 23 20 nan nan nan nan nan nan nan nan nan nan nan nan nan nan nan nan nan nan nan nan nan nan nan nan nan nan nan nan nan nan nan nan nan nan nan nan nan nan nan nan nan nan nan nan nan nan 23
31 29 25 22 21 22 22 20 18 20 22 24 24 25 24 21 19 19 19 20 23 24 24 21 20 22 23 24 25 22 21 20 20 21 21 22 nan nan nan nan nan nan nan nan nan nan nan nan nan nan nan nan nan nan nan nan nan nan nan nan nan nan nan nan nan nan nan nan nan nan nan nan nan nan nan nan nan nan nan nan nan nan nan nan nan
30 28 25 22 21 22 20 18 17 16 18 20 22 22 20 18 17 15 14 16 19 22 23 22 20 21 22 21 24 20 17 16 17 19 19 18 nan nan nan nan nan nan nan nan nan nan nan nan nan nan nan nan nan nan nan nan nan nan nan nan nan nan nan nan nan nan nan nan nan nan nan nan nan nan nan nan nan nan nan nan nan nan nan nan nan
27 26 23 23 22 21 20 19 18 17 16 18 19 18 17 15 13 13 14 15 16 17 17 19 18 18 18 16 17 18 16 17 19 19 nan nan nan nan nan nan nan nan nan nan nan nan nan nan nan nan nan nan nan nan nan nan nan nan nan nan nan nan nan nan nan nan nan nan nan nan nan nan nan nan nan nan nan nan nan nan nan nan nan nan nan
26 25 24 23 21 19 18 18 17 16 16 18 17 17 16 14 13 17 17 15 13 12 12 15 18 18 17 16 16 17 18 20 21 19 nan nan nan nan nan nan nan nan nan nan nan nan nan nan nan nan nan nan nan nan nan nan nan nan nan nan nan nan nan nan nan nan nan nan nan nan nan nan nan nan nan nan nan nan nan nan nan nan nan nan nan
23 22 22 21 19 18 16 16 16 15 16 17 16 15 14 14 16 20 17 13 13 12 13 15 17 16 15 15 16 19 21 21 20 19 nan nan nan nan nan nan nan nan nan nan nan nan nan nan nan nan nan nan nan nan nan nan nan nan nan nan nan nan nan nan nan nan nan nan nan nan nan nan nan nan nan nan nan nan nan nan nan nan nan nan nan
20 21 21 20 19 17 15 15 15 15 16 16 15 14 13 16 18 20 18 14 14 13 12 14 16 16 17 20 20 19 20 20 nan nan nan nan nan nan nan nan nan nan nan nan nan nan nan nan nan nan nan nan nan nan nan nan nan nan nan nan nan nan nan nan nan nan nan nan nan nan nan nan nan nan nan nan nan nan nan nan nan nan nan nan nan
20 22 23 21 19 18 16 15 16 15 16 16 14 14 16 19 20 20 18 14 14 13 13 15 16 18 20 20 18 17 18 18 19 20 nan nan nan nan nan nan nan nan nan nan nan nan nan nan nan nan nan nan nan nan nan nan nan nan nan nan nan nan nan nan nan nan nan nan nan nan nan nan nan nan nan nan nan nan nan nan nan nan nan nan nan
21 23 24 21 19 18 16 16 17 16 16 13 15 17 18 19 19 19 18 14 13 13 13 15 16 16 17 17 16 17 17 18 20 nan nan nan nan nan nan nan nan nan nan nan nan nan nan nan nan nan nan nan nan nan nan nan nan nan nan nan nan nan nan nan nan nan nan nan nan nan nan nan nan nan nan nan nan nan nan nan nan nan nan nan nan
21 23 22 20 20 20 17 17 17 17 14 13 16 17 18 18 19 19 17 14 12 12 12 12 13 14 14 15 16 nan nan nan nan nan nan nan nan nan nan nan nan nan nan nan nan nan nan nan nan nan nan nan nan nan nan nan nan nan nan nan nan nan nan nan nan nan nan nan nan nan nan nan nan nan nan nan nan nan nan nan nan nan nan nan nan
23 24 23 21 21 21 18 17 18 17 16 17 17 16 16 18 20 18 16 nan nan nan 12 11 13 14 nan nan nan nan nan nan nan nan nan nan nan nan nan nan nan nan nan nan nan nan nan nan nan nan nan nan nan nan nan nan nan nan nan nan nan nan nan nan nan nan nan nan nan nan nan nan nan nan nan nan nan nan nan nan nan nan nan nan nan
24 24 22 21 20 19 19 19 19 18 18 18 17 18 19 19 18 15 14 12 nan nan 11 12 13 nan nan nan nan nan nan nan nan nan nan nan nan nan nan nan nan nan nan nan nan nan nan nan nan nan nan nan nan nan nan nan nan nan nan nan nan nan nan nan nan nan nan nan nan nan nan nan nan nan nan nan nan nan nan nan nan nan nan nan nan
21 21 20 20 19 20 20 21 21 21 20 18 19 19 21 20 17 14 13 12 nan nan nan nan nan nan nan nan nan nan nan nan nan nan nan nan nan nan nan nan nan nan nan nan nan nan nan nan nan nan nan nan nan nan nan nan nan nan nan nan nan nan nan nan nan nan nan nan nan nan nan nan nan nan nan nan nan nan nan nan nan nan nan nan nan
19 20 20 20 20 20 22 22 22 21 20 19 19 21 20 18 16 14 14 nan nan nan nan nan nan nan nan nan nan nan nan nan nan nan nan nan nan nan nan nan nan nan nan nan nan nan nan nan nan nan nan nan nan nan nan nan nan nan nan nan nan nan nan nan nan nan nan nan nan nan nan nan nan nan nan nan nan nan nan nan nan nan nan nan nan
20 21 21 21 21 22 24 24 23 22 20 21 20 20 19 16 14 14 14 12 11 11 nan nan nan nan nan nan nan nan nan nan nan nan nan nan nan nan nan nan nan nan nan nan nan nan nan nan nan nan nan nan nan nan nan nan nan nan nan nan nan nan nan nan nan nan nan nan nan nan nan nan nan nan nan nan nan nan nan nan nan nan nan nan nan
22 24 22 22 22 22 25 27 26 24 22 22 22 19 18 17 16 15 15 15 nan nan nan nan nan nan nan nan nan nan nan nan nan nan nan nan nan nan nan nan nan nan nan nan nan nan nan nan nan nan nan nan nan nan nan nan nan nan nan nan nan nan nan nan nan nan nan nan nan nan nan nan nan nan nan nan nan nan nan nan nan nan nan nan nan
28 26 24 24 24 24 26 27 27 26 24 23 22 20 19 19 17 16 nan nan nan nan nan nan nan nan nan nan nan nan nan nan nan nan nan nan nan nan nan nan nan nan nan nan nan nan nan nan nan nan nan nan nan nan nan nan nan nan nan nan nan nan nan nan nan nan nan nan nan nan nan nan nan nan nan nan nan nan nan nan nan nan nan nan nan
32 30 27 27 26 27 26 27 28 27 25 24 22 20 21 20 18 nan nan nan nan nan nan nan nan nan nan nan nan nan nan nan nan nan nan nan nan nan nan nan nan nan nan nan nan nan nan nan nan nan nan nan nan nan nan nan nan nan nan nan nan nan nan nan nan nan nan nan nan nan nan nan nan nan nan nan nan nan nan nan nan nan nan nan nan
31 30 28 28 27 27 27 28 28 28 26 25 22 21 21 22 22 nan nan nan nan nan nan nan nan nan nan nan nan nan nan nan nan 28 29 nan nan nan nan nan nan nan nan nan nan nan nan nan nan nan nan nan nan nan nan nan nan nan nan nan nan nan nan nan nan nan nan nan nan nan nan nan nan nan nan nan nan nan nan nan nan nan nan nan nan
30 30 28 28 28 28 28 29 29 29 26 24 22 23 25 25 24 nan nan nan nan nan nan nan nan nan nan nan nan nan nan nan nan nan nan nan nan nan nan nan nan nan nan nan nan nan nan nan nan nan nan nan nan nan nan nan nan nan nan nan nan nan nan nan nan nan nan nan nan nan nan nan nan nan nan nan nan nan nan nan nan nan nan nan nan
27 30 31 30 30 30 30 30 30 28 25 nan 25 28 27 25 nan nan nan nan nan nan nan nan nan nan nan nan nan nan nan nan nan nan nan nan nan nan nan nan nan nan nan nan nan nan nan nan nan nan nan nan nan nan nan nan nan nan nan nan nan nan nan nan nan nan nan nan nan nan nan nan nan nan nan nan nan nan nan nan nan nan nan nan nan
26 28 30 31 31 31 31 30 30 28 27 28 nan nan 26 24 nan nan nan nan nan nan nan nan nan nan nan nan nan nan nan nan nan nan nan nan nan nan nan nan nan nan nan nan nan nan nan nan nan nan nan nan nan nan nan nan nan nan nan nan nan nan nan nan nan nan nan nan nan nan nan nan nan nan nan nan nan nan nan nan nan nan nan nan nan
29 28 27 30 32 33 32 30 29 28 30 32 nan nan 25 24 23 nan nan nan nan nan nan nan nan nan nan nan nan nan nan nan nan nan nan nan nan nan nan nan nan nan nan nan nan nan nan nan nan nan nan nan nan nan nan nan nan nan nan nan nan nan nan nan nan nan nan nan nan nan nan nan nan nan nan nan nan nan nan nan nan nan nan nan nan
28 30 30 30 30 31 31 29 29 30 32 31 29 26 25 25 23 24 nan nan nan nan nan nan 24 23 23 nan nan nan nan nan nan nan nan nan nan nan nan nan nan nan nan nan nan nan nan nan nan nan nan nan nan nan nan nan nan nan nan nan nan nan nan nan nan nan nan nan nan nan nan nan nan nan nan nan nan nan nan nan nan nan nan nan nan
25 28 31 32 29 28 28 30 31 31 30 29 28 26 26 25 23 23 23 nan nan nan nan nan nan 24 25 26 nan nan nan nan nan nan nan nan nan nan nan nan nan nan nan nan nan nan nan nan nan nan nan nan nan nan nan nan nan nan nan nan nan nan nan nan nan nan nan nan nan nan nan nan nan nan nan nan nan nan nan nan nan nan nan nan nan
27 28 29 29 29 29 30 30 31 30 29 28 29 28 26 25 24 24 nan nan nan nan nan nan nan 25 26 26 28 nan nan nan nan nan nan nan nan nan nan nan nan nan nan nan nan nan nan nan nan nan nan nan nan nan nan nan nan nan nan nan nan nan nan nan nan nan nan nan nan nan nan nan nan nan nan nan nan nan nan nan nan nan nan nan nan
28 28 28 30 32 31 30 29 29 30 31 32 32 29 26 26 26 27 29 28 28 nan 25 25 25 26 26 27 nan nan nan nan nan nan nan nan nan nan nan nan nan nan nan nan nan nan nan nan nan nan nan nan nan nan nan nan nan nan nan nan nan nan nan nan nan nan nan nan nan nan nan nan nan nan nan nan nan nan nan nan nan nan nan nan nan
27 26 26 29 34 36 31 29 30 31 32 33 nan 29 27 28 29 31 32 nan nan 27 26 27 27 26 27 28 nan nan nan nan nan nan nan nan nan nan nan nan nan nan nan nan nan nan nan nan nan nan nan nan nan nan nan nan nan nan nan nan nan nan nan nan nan nan nan nan nan nan nan nan nan nan nan nan nan nan nan nan nan nan nan nan nan
27 28 28 29 33 35 33 30 31 33 32 32 32 30 31 32 33 33 33 31 30 30 31 29 28 28 30 nan nan nan nan nan nan nan nan nan nan nan nan nan nan nan nan nan nan nan nan nan nan nan nan nan nan nan nan nan nan nan nan nan nan nan nan nan nan nan nan nan nan nan nan nan nan nan nan nan nan nan nan nan nan nan nan nan nan
27 29 29 30 31 32 34 34 34 33 32 32 32 31 32 35 nan 31 32 32 34 35 34 32 nan 33 nan nan nan nan nan nan nan nan nan nan nan nan nan nan nan nan nan nan nan nan nan nan nan nan nan nan nan nan nan nan nan nan nan nan nan nan nan nan nan nan nan nan nan nan nan nan nan nan nan nan nan nan nan nan nan nan nan nan nan
26 25 28 30 32 34 34 34 36 35 33 34 34 34 36 nan 32 33 33 35 40 40 37 36 nan nan nan nan nan nan nan nan nan nan nan nan nan nan nan nan nan nan nan nan nan nan nan nan nan nan nan nan nan nan nan nan nan nan nan nan nan nan nan nan nan nan nan nan nan nan nan nan nan nan nan nan nan nan nan nan nan nan nan nan nan
26 27 27 29 31 33 35 36 37 37 35 35 36 36 35 nan nan nan 38 nan nan nan nan nan nan nan nan nan nan nan nan nan nan nan nan nan nan nan nan nan nan nan nan nan nan nan nan nan nan nan nan nan nan nan nan nan nan nan nan nan nan nan nan nan nan nan nan nan nan nan nan nan nan nan nan nan nan nan nan nan nan nan nan nan nan
28 28 29 30 32 34 33 34 37 36 35 37 36 35 35 nan nan nan nan nan nan nan nan nan nan nan nan nan nan nan nan nan nan nan nan nan nan nan nan nan nan nan nan nan nan nan nan nan nan nan nan nan nan nan nan nan nan nan nan nan nan nan nan nan nan nan nan nan nan nan nan nan nan nan nan nan nan nan nan nan nan nan nan nan nan
30 29 30 31 31 31 33 34 35 35 34 35 35 35 nan 31 29 nan nan nan nan nan nan nan nan nan nan nan nan nan nan nan nan nan nan nan nan nan nan nan nan nan nan nan nan nan nan nan nan nan nan nan nan nan nan nan nan nan nan nan nan nan nan nan nan nan nan nan nan nan nan nan nan nan nan nan nan nan nan nan nan nan nan nan nan
32 32 31 32 32 33 34 34 33 33 32 32 33 31 28 27 26 nan nan nan nan nan nan nan nan nan nan nan nan nan nan nan nan nan nan nan nan nan nan nan nan nan nan nan nan nan nan nan nan nan nan nan nan nan nan nan nan nan nan nan nan nan nan nan nan nan nan nan nan nan nan nan nan nan nan nan nan nan nan nan nan nan nan nan nan
34 31 30 32 33 33 33 33 31 30 29 28 28 27 24 nan nan nan nan nan nan nan nan nan nan nan nan nan nan nan nan nan nan nan nan nan nan nan nan nan nan nan nan nan nan nan nan nan nan nan nan nan nan nan nan nan nan nan nan nan nan nan nan nan nan nan nan nan nan nan nan nan nan nan nan nan nan nan nan nan nan nan nan nan nan
32 nan 31 31 33 32 32 30 28 27 26 24 24 25 24 nan nan 21 nan nan nan nan nan nan nan nan nan nan nan nan nan nan nan nan nan nan nan nan nan nan nan nan nan nan nan nan nan nan nan nan nan nan nan nan nan nan nan nan nan nan nan nan nan nan nan nan nan nan nan nan nan nan nan nan nan nan nan nan nan nan nan nan nan nan nan
nan nan 31 30 31 32 30 28 26 25 23 23 24 25 26 nan 21 22 nan nan nan nan nan nan nan nan nan nan nan nan nan nan nan nan nan nan nan nan nan nan nan nan nan nan nan nan nan nan nan nan nan nan nan nan nan nan nan nan nan nan nan nan nan nan nan nan nan nan nan nan nan nan nan nan nan nan nan nan nan nan nan nan nan nan nan
nan 32 30 30 30 30 29 28 26 24 24 24 25 25 26 24 22 23 nan nan nan nan nan nan nan nan nan nan nan nan nan nan nan nan nan nan nan nan nan nan nan nan nan nan nan nan nan nan nan nan nan nan nan nan nan nan nan nan nan nan nan nan nan nan nan nan nan nan nan nan nan nan nan nan nan nan nan nan nan nan nan nan nan nan nan
nan nan nan 30 30 29 28 27 26 25 nan nan 25 nan 26 24 23 23 nan nan nan nan nan nan nan nan nan nan nan nan nan nan nan nan nan nan nan nan nan nan nan nan nan nan nan nan nan nan nan nan nan nan nan nan nan nan nan nan nan nan nan nan nan nan nan nan nan nan nan nan nan nan nan nan nan nan nan nan nan nan nan nan nan nan nan
nan nan nan 30 29 28 27 26 26 25 25 25 25 26 26 24 23 nan nan nan nan nan nan nan nan nan nan nan nan nan nan nan nan nan nan nan nan nan nan nan nan nan nan nan nan nan nan nan nan nan nan nan nan nan nan nan nan nan nan nan nan nan nan nan nan nan nan nan nan nan nan nan nan nan nan nan nan nan nan nan nan nan nan nan nan
nan nan nan nan 29 28 27 27 25 25 26 26 26 nan nan 26 nan nan nan nan nan nan nan nan nan nan nan nan nan nan nan nan nan nan nan nan nan nan nan nan nan nan nan nan nan nan nan nan nan nan nan nan nan nan nan nan nan nan nan nan nan nan nan nan nan nan nan nan nan nan nan nan nan nan nan nan nan nan nan nan nan nan nan nan nan
nan nan nan nan 28 29 28 27 26 26 27 27 27 nan 27 27 nan nan nan nan nan nan nan nan nan nan nan nan nan nan nan nan nan nan nan nan nan nan nan nan nan nan nan nan nan nan nan nan nan nan nan nan nan nan nan nan nan nan nan nan nan nan nan nan nan nan nan nan nan nan nan nan nan nan nan nan nan nan nan nan nan nan nan nan nan
nan nan nan 28 29 30 30 29 27 28 29 29 29 28 28 29 31 nan nan nan nan nan nan nan nan nan nan nan nan nan nan nan nan nan nan nan nan nan nan nan nan nan nan nan nan nan nan nan nan nan nan nan nan nan nan nan nan nan nan nan nan nan nan nan nan nan nan nan nan nan nan nan nan nan nan nan nan nan nan nan nan nan nan nan nan
Wind_Direction
270 265 266 269 270 267 265 262 259 258 256 258 263 265 270 276 278 275 272 276 276 274 272 275 276 273 267 266 264 261 263 264 266 266 264 266 263 266 271 262 252 276 305 279 253 248 248 247 247 248 254 260 264 265 274 280 279 285 295 299 303 306 314 315 315 318 314 317 322 326 326 325 327 323 322 318 320 326 325 323 325 325 327 327 329
273 269 266 268 269 267 263 264 264 264 258 258 264 265 270 276 275 277 277 275 272 272 275 274 275 275 273 272 268 265 265 263 261 261 261 257 253 252 257 251 253 268 264 256 255 250 251 251 248 252 255 262 270 273 270 270 268 273 279 283 292 296 304 301 301 307 308 308 311 312 318 nan 318 312 313 312 318 324 324 322 323 325 327 326 324
275 271 269 271 274 271 269 268 265 263 263 260 259 264 273 276 274 280 284 276 271 274 275 277 271 271 271 273 272 265 260 261 263 260 259 256 253 257 261 258 260 263 255 252 250 246 247 249 253 257 259 261 264 266 272 270 277 276 277 284 286 293 302 301 288 287 301 313 321 313 310 304 307 307 308 302 313 319 318 318 322 323 328 326 325
275 270 267 273 278 274 271 271 269 268 264 262 262 265 272 277 279 286 285 278 275 273 272 272 271 268 266 268 267 266 265 261 259 258 255 255 257 256 252 253 255 249 244 246 249 246 247 249 256 262 nan nan nan nan nan nan nan 280 280 283 288 nan 289 296 287 283 290 294 295 308 317 310 307 309 305 313 314 303 307 315 314 320 321 320 319
272 268 263 269 272 272 270 268 270 272 268 266 265 264 269 277 281 288 284 279 275 274 275 277 274 266 265 267 268 268 261 257 258 256 256 257 250 239 239 243 241 238 240 244 246 248 250 253 259 263 266 nan nan nan nan nan nan nan nan nan nan nan nan nan nan 287 287 291 293 299 303 306 305 306 299 317 306 299 309 308 310 313 318 318 319
267 268 270 269 266 266 267 269 270 271 270 266 266 265 272 277 282 282 276 275 278 278 282 282 277 272 273 272 267 263 260 253 254 256 253 246 240 238 238 237 238 nan nan nan nan nan nan nan nan nan nan nan nan nan nan nan nan nan nan nan nan nan nan nan nan nan nan 289 291 295 300 303 293 294 300 299 300 316 310 305 304 297 302 311 317
266 265 267 269 266 267 270 273 272 270 267 269 268 267 272 278 280 276 274 275 278 282 283 284 279 273 275 275 268 262 258 245 243 245 240 235 243 247 244 nan nan nan nan nan nan nan nan nan nan nan nan nan nan nan nan nan nan nan nan nan nan nan nan nan nan nan nan nan nan nan nan nan nan 294 293 291 nan nan nan 296 293 nan nan 296 306
274 271 270 267 261 263 274 280 276 269 267 271 270 267 271 276 279 277 274 280 280 280 282 285 284 276 276 275 267 260 255 253 249 243 238 247 256 257 nan nan nan nan nan nan nan nan nan nan nan nan nan nan nan nan nan nan nan nan nan nan nan nan nan nan nan nan nan nan nan nan nan nan nan nan nan nan nan nan nan nan nan nan nan nan 291
278 275 278 278 266 257 268 281 278 273 271 274 272 266 267 271 274 274 277 281 279 275 274 272 273 277 277 275 268 258 257 251 248 249 254 262 nan nan nan nan nan nan nan nan nan nan nan nan nan nan nan nan nan nan nan nan nan nan nan nan nan nan nan nan nan nan nan nan nan nan nan nan nan nan nan nan nan nan nan nan nan nan nan nan nan
281 281 283 283 272 264 266 272 277 275 269 270 269 265 265 269 273 280 282 278 273 270 266 265 267 270 269 269 268 260 252 251 256 264 265 265 nan nan nan nan nan nan nan nan nan nan nan nan nan nan nan nan nan nan nan nan nan nan nan nan nan nan nan nan nan nan nan nan nan nan nan nan nan nan nan nan nan nan nan nan nan nan nan nan nan
286 285 285 283 276 268 268 276 276 272 272 274 270 267 261 259 269 285 293 284 275 271 266 264 262 262 260 253 249 251 256 269 272 268 nan nan nan nan nan nan nan nan nan nan nan nan nan nan nan nan nan nan nan nan nan nan nan nan nan nan nan nan nan nan nan nan nan nan nan nan nan nan nan nan nan nan nan nan nan nan nan nan nan nan nan
284 283 282 284 279 269 266 273 279 282 284 281 274 268 257 250 269 293 297 293 281 268 256 254 253 248 236 229 236 251 266 271 269 263 nan nan nan nan nan nan nan nan nan nan nan nan nan nan nan nan nan nan nan nan nan nan nan nan nan nan nan nan nan nan nan nan nan nan nan nan nan nan nan nan nan nan nan nan nan nan nan nan nan nan nan
282 280 279 280 281 281 280 282 285 292 291 288 279 268 259 262 280 293 290 282 277 268 257 248 236 222 223 241 259 267 266 264 262 259 nan nan nan nan nan nan nan nan nan nan nan nan nan nan nan nan nan nan nan nan nan nan nan nan nan nan nan nan nan nan nan nan nan nan nan nan nan nan nan nan nan nan nan nan nan nan nan nan nan nan nan
275 275 273 270 273 280 285 286 287 289 291 289 284 279 273 272 278 283 286 279 270 262 252 239 225 225 247 268 272 267 259 256 nan nan nan nan nan nan nan nan nan nan nan nan nan nan nan nan nan nan nan nan nan nan nan nan nan nan nan nan nan nan nan nan nan nan nan nan nan nan nan nan nan nan nan nan nan nan nan nan nan nan nan nan nan
273 270 268 269 273 280 280 279 280 284 289 291 288 278 273 275 278 283 285 278 268 261 254 247 245 254 266 271 268 261 259 257 255 256 nan nan nan nan nan nan nan nan nan nan nan nan nan nan nan nan nan nan nan nan nan nan nan nan nan nan nan nan nan nan nan nan nan nan nan nan nan nan nan nan nan nan nan nan nan nan nan nan nan nan nan
272 269 269 271 275 274 270 274 278 284 289 287 281 280 279 280 283 283 281 273 267 266 260 261 261 263 267 267 263 263 262 259 258 nan nan nan nan nan nan nan nan nan nan nan nan nan nan nan nan nan nan nan nan nan nan nan nan nan nan nan nan nan nan nan nan nan nan nan nan nan nan nan nan nan nan nan nan nan nan nan nan nan nan nan nan
273 272 272 276 273 267 266 273 279 285 287 282 281 283 285 285 287 285 275 265 263 261 262 261 261 258 255 257 260 nan nan nan nan nan nan nan nan nan nan nan nan nan nan nan nan nan nan nan nan nan nan nan nan nan nan nan nan nan nan nan nan nan nan nan nan nan nan nan nan nan nan nan nan nan nan nan nan nan nan nan nan nan nan nan nan
272 269 272 275 273 270 267 272 280 286 284 279 281 280 278 284 288 284 276 nan nan nan 258 258 258 256 nan nan nan nan nan nan nan nan nan nan nan nan nan nan nan nan nan nan nan nan nan nan nan nan nan nan nan nan nan nan nan nan nan nan nan nan nan nan nan nan nan nan nan nan nan nan nan nan nan nan nan nan nan nan nan nan nan nan nan
269 268 269 271 271 268 269 275 278 280 279 279 279 276 276 279 279 273 273 271 nan nan 250 250 250 nan nan nan nan nan nan nan nan nan nan nan nan nan nan nan nan nan nan nan nan nan nan nan nan nan nan nan nan nan nan nan nan nan nan nan nan nan nan nan nan nan nan nan nan nan nan nan nan nan nan nan nan nan nan nan nan nan nan nan nan
270 266 267 269 269 271 272 275 280 282 283 284 282 277 276 277 273 262 259 267 nan nan nan nan nan nan nan nan nan nan nan nan nan nan nan nan nan nan nan nan nan nan nan nan nan nan nan nan nan nan nan nan nan nan nan nan nan nan nan nan nan nan nan nan nan nan nan nan nan nan nan nan nan nan nan nan nan nan nan nan nan nan nan nan nan
269 270 274 274 273 274 273 270 273 275 279 283 281 279 276 272 264 257 266 nan nan nan nan nan nan nan nan nan nan nan nan nan nan nan nan nan nan nan nan nan nan nan nan nan nan nan nan nan nan nan nan nan nan nan nan nan nan nan nan nan nan nan nan nan nan nan nan nan nan nan nan nan nan nan nan nan nan nan nan nan nan nan nan nan nan
270 274 280 278 273 274 273 272 274 277 282 283 279 275 272 266 260 259 265 278 287 286 nan nan nan nan nan nan nan nan nan nan nan nan nan nan nan nan nan nan nan nan nan nan nan nan nan nan nan nan nan nan nan nan nan nan nan nan nan nan nan nan nan nan nan nan nan nan nan nan nan nan nan nan nan nan nan nan nan nan nan nan nan nan nan
275 278 279 277 273 273 275 278 280 282 281 280 276 273 268 264 264 260 261 268 nan nan nan nan nan nan nan nan nan nan nan nan nan nan nan nan nan nan nan nan nan nan nan nan nan nan nan nan nan nan nan nan nan nan nan nan nan nan nan nan nan nan nan nan nan nan nan nan nan nan nan nan nan nan nan nan nan nan nan nan nan nan nan nan nan
274 274 272 275 275 273 275 276 276 278 280 279 275 271 266 263 262 255 nan nan nan nan nan nan nan nan nan nan nan nan nan nan nan nan nan nan nan nan nan nan nan nan nan nan nan nan nan nan nan nan nan nan nan nan nan nan nan nan nan nan nan nan nan nan nan nan nan nan nan nan nan nan nan nan nan nan nan nan nan nan nan nan nan nan nan
274 275 274 275 275 276 275 273 275 276 275 275 276 273 269 265 258 nan nan nan nan nan nan nan nan nan nan nan nan nan nan nan nan nan nan nan nan nan nan nan nan nan nan nan nan nan nan nan nan nan nan nan nan nan nan nan nan nan nan nan nan nan nan nan nan nan nan nan nan nan nan nan nan nan nan nan nan nan nan nan nan nan nan nan nan
273 274 274 276 273 270 269 271 272 272 273 275 275 274 266 259 262 nan nan nan nan nan nan nan nan nan nan nan nan nan nan nan nan 274 275 nan nan nan nan nan nan nan nan nan nan nan nan nan nan nan nan nan nan nan nan nan nan nan nan nan nan nan nan nan nan nan nan nan nan nan nan nan nan nan nan nan nan nan nan nan nan nan nan nan nan
271 271 268 267 268 270 270 270 269 270 271 273 274 266 261 262 262 nan nan nan nan nan nan nan nan nan nan nan nan nan nan nan nan nan nan nan nan nan nan nan nan nan nan nan nan nan nan nan nan nan nan nan nan nan nan nan nan nan nan nan nan nan nan nan nan nan nan nan nan nan nan nan nan nan nan nan nan nan nan nan nan nan nan nan nan
263 265 266 267 268 267 268 268 269 270 270 nan 263 263 264 262 nan nan nan nan nan nan nan nan nan nan nan nan nan nan nan nan nan nan nan nan nan nan nan nan nan nan nan nan nan nan nan nan nan nan nan nan nan nan nan nan nan nan nan nan nan nan nan nan nan nan nan nan nan nan nan nan nan nan nan nan nan nan nan nan nan nan nan nan nan
277 276 271 268 266 265 265 264 265 266 267 264 nan nan 262 260 nan nan nan nan nan nan nan nan nan nan nan nan nan nan nan nan nan nan nan nan nan nan nan nan nan nan nan nan nan nan nan nan nan nan nan nan nan nan nan nan nan nan nan nan nan nan nan nan nan nan nan nan nan nan nan nan nan nan nan nan nan nan nan nan nan nan nan nan nan
278 275 269 269 268 266 265 265 264 266 264 260 nan nan 265 265 268 nan nan nan nan nan nan nan nan nan nan nan nan nan nan nan nan nan nan nan nan nan nan nan nan nan nan nan nan nan nan nan nan nan nan nan nan nan nan nan nan nan nan nan nan nan nan nan nan nan nan nan nan nan nan nan nan nan nan nan nan nan nan nan nan nan nan nan nan
270 271 271 265 262 265 268 267 268 268 269 266 265 267 266 267 268 271 nan nan nan nan nan nan 270 272 275 nan nan nan nan nan nan nan nan nan nan nan nan nan nan nan nan nan nan nan nan nan nan nan nan nan nan nan nan nan nan nan nan nan nan nan nan nan nan nan nan nan nan nan nan nan nan nan nan nan nan nan nan nan nan nan nan nan nan
270 264 265 268 267 267 270 270 273 272 269 263 265 264 262 264 267 270 268 nan nan nan nan nan nan 272 274 274 nan nan nan nan nan nan nan nan nan nan nan nan nan nan nan nan nan nan nan nan nan nan nan nan nan nan nan nan nan nan nan nan nan nan nan nan nan nan nan nan nan nan nan nan nan nan nan nan nan nan nan nan nan nan nan nan nan
280 273 269 267 268 267 262 264 269 267 261 261 262 260 258 263 267 262 nan nan nan nan nan nan nan 272 272 270 271 nan nan nan nan nan nan nan nan nan nan nan nan nan nan nan nan nan nan nan nan nan nan nan nan nan nan nan nan nan nan nan nan nan nan nan nan nan nan nan nan nan nan nan nan nan nan nan nan nan nan nan nan nan nan nan nan
281 283 278 270 263 258 264 271 269 264 265 260 257 256 253 258 261 258 260 260 262 nan 265 269 270 271 271 270 nan nan nan nan nan nan nan nan nan nan nan nan nan nan nan nan nan nan nan nan nan nan nan nan nan nan nan nan nan nan nan nan nan nan nan nan nan nan nan nan nan nan nan nan nan nan nan nan nan nan nan nan nan nan nan nan nan
282 279 275 273 270 266 261 258 257 257 258 263 nan 262 259 256 255 258 258 nan nan 266 267 268 270 270 268 267 nan nan nan nan nan nan nan nan nan nan nan nan nan nan nan nan nan nan nan nan nan nan nan nan nan nan nan nan nan nan nan nan nan nan nan nan nan nan nan nan nan nan nan nan nan nan nan nan nan nan nan nan nan nan nan nan nan
274 275 273 271 272 274 272 263 252 256 259 261 261 260 262 261 259 258 256 257 262 266 268 269 268 266 265 nan nan nan nan nan nan nan nan nan nan nan nan nan nan nan nan nan nan nan nan nan nan nan nan nan nan nan nan nan nan nan nan nan nan nan nan nan nan nan nan nan nan nan nan nan nan nan nan nan nan nan nan nan nan nan nan nan nan
267 269 270 269 269 265 264 260 259 260 261 260 261 263 261 263 nan 267 260 259 261 264 265 264 nan 265 nan nan nan nan nan nan nan nan nan nan nan nan nan nan nan nan nan nan nan nan nan nan nan nan nan nan nan nan nan nan nan nan nan nan nan nan nan nan nan nan nan nan nan nan nan nan nan nan nan nan nan nan nan nan nan nan nan nan nan
269 261 262 264 265 263 259 260 263 259 252 256 260 261 264 nan 267 267 267 261 259 256 258 261 nan nan nan nan nan nan nan nan nan nan nan nan nan nan nan nan nan nan nan nan nan nan nan nan nan nan nan nan nan nan nan nan nan nan nan nan nan nan nan nan nan nan nan nan nan nan nan nan nan nan nan nan nan nan nan nan nan nan nan nan nan
277 275 267 264 263 262 261 259 258 256 256 259 264 266 265 nan nan nan 272 nan nan nan nan nan nan nan nan nan nan nan nan nan nan nan nan nan nan nan nan nan nan nan nan nan nan nan nan nan nan nan nan nan nan nan nan nan nan nan nan nan nan nan nan nan nan nan nan nan nan nan nan nan nan nan nan nan nan nan nan nan nan nan nan nan nan
270 269 270 267 262 260 261 263 262 259 259 262 263 263 263 nan nan nan nan nan nan nan nan nan nan nan nan nan nan nan nan nan nan nan nan nan nan nan nan nan nan nan nan nan nan nan nan nan nan nan nan nan nan nan nan nan nan nan nan nan nan nan nan nan nan nan nan nan nan nan nan nan nan nan nan nan nan nan nan nan nan nan nan nan nan
269 268 265 263 264 264 265 263 260 262 262 261 261 264 nan 266 270 nan nan nan nan nan nan nan nan nan nan nan nan nan nan nan nan nan nan nan nan nan nan nan nan nan nan nan nan nan nan nan nan nan nan nan nan nan nan nan nan nan nan nan nan nan nan nan nan nan nan nan nan nan nan nan nan nan nan nan nan nan nan nan nan nan nan nan nan
267 266 261 259 260 258 257 257 260 263 263 262 264 267 269 271 274 nan nan nan nan nan nan nan nan nan nan nan nan nan nan nan nan nan nan nan nan nan nan nan nan nan nan nan nan nan nan nan nan nan nan nan nan nan nan nan nan nan nan nan nan nan nan nan nan nan nan nan nan nan nan nan nan nan nan nan nan nan nan nan nan nan nan nan nan
270 267 262 261 259 262 263 263 263 263 261 261 267 270 270 nan nan nan nan nan nan nan nan nan nan nan nan nan nan nan nan nan nan nan nan nan nan nan nan nan nan nan nan nan nan nan nan nan nan nan nan nan nan nan nan nan nan nan nan nan nan nan nan nan nan nan nan nan nan nan nan nan nan nan nan nan nan nan nan nan nan nan nan nan nan
265 nan 263 261 261 261 263 265 265 265 263 264 266 265 267 nan nan 262 nan nan nan nan nan nan nan nan nan nan nan nan nan nan nan nan nan nan nan nan nan nan nan nan nan nan nan nan nan nan nan nan nan nan nan nan nan nan nan nan nan nan nan nan nan nan nan nan nan nan nan nan nan nan nan nan nan nan nan nan nan nan nan nan nan nan nan
nan nan 266 260 262 265 263 262 263 269 263 259 258 265 269 nan 265 264 nan nan nan nan nan nan nan nan nan nan nan nan nan nan nan nan nan nan nan nan nan nan nan nan nan nan nan nan nan nan nan nan nan nan nan nan nan nan nan nan nan nan nan nan nan nan nan nan nan nan nan nan nan nan nan nan nan nan nan nan nan nan nan nan nan nan nan
nan 266 266 261 260 259 259 262 263 263 260 258 261 267 272 269 267 267 nan nan nan nan nan nan nan nan nan nan nan nan nan nan nan nan nan nan nan nan nan nan nan nan nan nan nan nan nan nan nan nan nan nan nan nan nan nan nan nan nan nan nan nan nan nan nan nan nan nan nan nan nan nan nan nan nan nan nan nan nan nan nan nan nan nan nan
nan nan nan 258 259 258 258 258 258 257 nan nan 263 nan 267 271 272 272 nan nan nan nan nan nan nan nan nan nan nan nan nan nan nan nan nan nan nan nan nan nan nan nan nan nan nan nan nan nan nan nan nan nan nan nan nan nan nan nan nan nan nan nan nan nan nan nan nan nan nan nan nan nan nan nan nan nan nan nan nan nan nan nan nan nan nan
nan nan nan 257 257 257 255 253 255 256 256 258 261 264 270 274 273 nan nan nan nan nan nan nan nan nan nan nan nan nan nan nan nan nan nan nan nan nan nan nan nan nan nan nan nan nan nan nan nan nan nan nan nan nan nan nan nan nan nan nan nan nan nan nan nan nan nan nan nan nan nan nan nan nan nan nan nan nan nan nan nan nan nan nan nan
nan nan nan nan 256 254 253 252 250 250 254 257 261 nan nan 274 nan nan nan nan nan nan nan nan nan nan nan nan nan nan nan nan nan nan nan nan nan nan nan nan nan nan nan nan nan nan nan nan nan nan nan nan nan nan nan nan nan nan nan nan nan nan nan nan nan nan nan nan nan nan nan nan nan nan nan nan nan nan nan nan nan nan nan nan nan
nan nan nan nan 255 255 253 250 247 248 254 258 261 nan 265 267 nan nan nan nan nan nan nan nan nan nan nan nan nan nan nan nan nan nan nan nan nan nan nan nan nan nan nan nan nan nan nan nan nan nan nan nan nan nan nan nan nan nan nan nan nan nan nan nan nan nan nan nan nan nan nan nan nan nan nan nan nan nan nan nan nan nan nan nan nan
nan nan nan 257 254 252 251 250 249 251 254 256 258 260 261 261 266 nan nan nan nan nan nan nan nan nan nan nan nan nan nan nan nan nan nan nan nan nan nan nan nan nan nan nan nan nan nan nan nan nan nan nan nan nan nan nan nan nan nan nan nan nan nan nan nan nan nan nan nan nan nan nan nan nan nan nan nan nan nan nan nan nan nan nan nan